Flag for United Kingdom Weather past 2 weeks in Newtown, Wales, United Kingdom

Now
41 °F

Quite cool.


Feels Like: 33 °F
Forecast: 41 / 49 °F
Wind: 17 mph from Southwest

Location: Lake Vyrnwy

Current Time: Feb 28, 2015 at 3:00:28 AM

Latest Report: Feb 28, 2015 at 2:00 AM


Visibility: 7 mi

Pressure: 29.81 "Hg

Humidity: 93%

Dew point: 39 °F

Location of NewtownLocation

Historic Weather in Newtown — Graph

°F

Newtown temperature yesterday

Maximum temperature yesterday: 40 °F (at 11:00 AM)
Minimum temperature yesterday: 34 °F (at 1:00 AM)
Average temperature yesterday: 37 °F

Past Weeks' High & Low Weather Summary

 TemperatureHumidityPressure
High48 °F (Feb 26, 7:00 AM)97% (Feb 13, 4:00 AM)30.68 "Hg (Feb 13, 4:00 AM)
Low31 °F (Feb 22, 4:00 AM)61% (Feb 26, 4:00 PM)29.06 "Hg (Feb 23, 4:00 PM)
Average38 °F87%29.83 "Hg
* Reported Feb 13 1:00 AM — Feb 28 1:00 AM, Newtown, Weather by CustomWeather, © 2015

Note: Actual official high and low records may vary slightly from our data, if they occured in-between our weather recording intervals... More about our weather records

Advertising

Newtown weather history for previous 24 hours

 ConditionsComfort  
Time TempWeatherWind HumidityBarometerVisibility
1:00 AM
Sat, Feb 28
40 °FChilly.9 mph95%29.85 "Hg3 mi
12:00 AM39 °FChilly.15 mph93%29.88 "Hg7 mi
11:00 PM
Fri, Feb 27
39 °FChilly.14 mph89%29.89 "Hg4 mi
10:00 PM39 °FChilly.22 mph86%29.90 "Hg19 mi
8:00 PM39 °FChilly.16 mph85%29.98 "Hg11 mi
7:00 PM39 °FChilly.15 mph81%29.99 "Hg14 mi
6:00 PM39 °FChilly.8 mph75%30.00 "Hg13 mi
5:00 PM39 °FChilly.9 mph77%30.01 "Hg12 mi
4:00 PM40 °FChilly.20 mph73%30.03 "Hg10 mi
3:00 PM40 °FChilly.21 mph76%30.03 "Hg10 mi
2:00 PM40 °FChilly.21 mph74%30.05 "Hg14 mi
1:00 PM39 °FChilly.13 mph80%30.09 "Hg12 mi
12:00 PM40 °FChilly.16 mph75%30.09 "Hg17 mi
11:00 AM40 °FChilly.22 mph71%30.07 "Hg7 mi
10:00 AM38 °FChilly.18 mph74%30.08 "Hg12 mi
9:00 AM36 °FChilly.14 mph77%30.09 "Hg14 mi
8:00 AM35 °FChilly.12 mph82%30.08 "Hg14 mi
7:00 AM34 °FChilly.15 mph81%30.08 "Hg12 mi
6:00 AM34 °FChilly.13 mph78%30.07 "Hg16 mi
5:00 AM34 °FChilly.14 mph81%30.07 "Hg19 mi
4:00 AM35 °FChilly.17 mph78%30.06 "Hg12 mi
Weather by CustomWeather, © 2015

See weather overviewHow to use our weather pages